ORBCOMM FM106 [+]

Last updated on Sept. 7, 2017, 12:18 a.m. UTC

1 40088U 14040C   17249.55862263 -.00000066  00000-0  23048-4 0  9993
2 40088  47.0046  52.9442 0002315 266.8952  93.1668 14.54583967167232
UTC
Height (km)
Latitude
Longitude
Inclination
Orbital Period
UTC large
Height (km)
Speed (km/s)
/
Latitude / Longitude
Inclination (degrees)
Orbital Period (minutes)
Azimuth
Elevation
Range (km)
Doppler Factor
iOS Compass Heading
iOS Angle